Regional Weather Roundup
Issued by NWS

Home | Current Version | Previous Version | Graphics & Text | Print | Product List | Glossary Off
Versions: 1 2 3 4 5 6 7 8 9 10 11 12 13 14 15 16 17 18 19 20 21 22 23 24 25 26 27 28 29 30 31 32 33 34 35 36 37 38 39 40 41 42 43 44 45 46 47 48 49 50

000
ASUS43 KDMX 281203
RWRIA

WEATHER ROUNDUP FOR IOWA
NATIONAL WEATHER SERVICE DES MOINES IA
700 AM CDT SUN AUG 28 2016

NOTE: "FAIR" INDICATES FEW OR NO CLOUDS BELOW 12,000 FEET WITH NO
SIGNIFICANT WEATHER AND/OR OBSTRUCTIONS TO VISIBILITY.

* - THESE STATIONS ARE NOT NWS STATIONS...THUS NOT UNDER NWS
QUALITY CONTROL.  THEY ALSO DO NOT REPORT WEATHER SUCH
AS PRECIPITATION OR FOG.

IAZ001>003-012>014-020>022-031>034-043>046-281300-
   NORTHWEST IOWA

CITY           SKY/WX    TMP DP  RH WIND       PRES   REMARKS
CARROLL *      CLEAR     59  59 100 CALM      30.12R FOG
CHEROKEE *     CLEAR     64  64 100 S5        30.10F FOG
DENISON *      FOG       64  64 100 MISG      30.09R VSB<1/4
LE MARS *      CLEAR     66  64  94 S7        30.09R
ORANGE CITY *  CLEAR     64  63  94 CALM      30.09S FOG
SHELDON *      CLEAR     64  64 100 SE6       30.09R
SIOUX CITY     CLEAR     64  62  93 SE7       30.08R FOG
6HR MIN TEMP:  63; 6HR MAX TEMP:  68;

SPENCER        FOG       63  62  97 S8        30.11R VSB 1/2
6HR MIN TEMP:  57; 6HR MAX TEMP:  63;

STORM LAKE *   CLEAR     61  61 100 SE9       30.12S FOG
$$

IAZ055>058-069>071-079>083-090>094-281300-
   SOUTHWEST IOWA

CITY           SKY/WX    TMP DP  RH WIND       PRES   REMARKS
ATLANTIC *     PTCLDY    61  61 100 CALM      30.11R
AUDUBON *      CLEAR     57  55  94 CALM      30.13R FOG
CLARINDA *       N/A     64  64 100 MISG      30.12R
COUNCIL BLFS * PTCLDY    66  66 100 SE6       30.10R
CRESTON *      CLEAR     64  64 100 SE6       30.13R
HARLAN  *      CLOUDY    63  61  94 CALM      30.14R FOG
LAMONI         CLEAR     69  68  96 SE6       30.12R
6HR MIN TEMP:  67; 6HR MAX TEMP:  71;

RED OAK *      CLEAR     64  64 100 CALM      30.10R
SHENANDOAH *   CLEAR     66 N/A N/A CALM      30.09S
$$

IAZ047>049-059>061-072>074-084-281300-
   CENTRAL IOWA

CITY           SKY/WX    TMP DP  RH WIND       PRES   REMARKS
AMES           FOG       60  60 100 CALM      30.13R VSB 1/4
6HR MIN TEMP:  59; 6HR MAX TEMP:  63;

ANKENY *         N/A    N/A N/A N/A MISG        N/A
BOONE *          N/A     63  63 100 E3        30.12R FOG
CHARITON *       N/A     68  66  94 MISG      30.12R
DES MOINES     PTCLDY    69  67  93 E6        30.11R FOG
6HR MIN TEMP:  69; 6HR MAX TEMP:  72;

GRINNELL*      PTCLDY    65  64  97 E6        30.14R FOG
KNOXVILLE *    PTCLDY    68  66  94 CALM      30.11R
MARSHALLTOWN   PTCLDY    63  63 100 SE3       30.13R FOG
6HR MIN TEMP:  61; 6HR MAX TEMP:  64;

NEWTON *       CLEAR     66  66 100 E3        30.13R FOG
PELLA *          N/A     66  65  96 CALM      30.14R FOG
PERRY *        FOG       64  64 100 CALM      30.12S VSB<1/4
$$

IAZ004>006-015-016-023>025-035-036-281300-
   NORTH CENTRAL IOWA

CITY           SKY/WX    TMP DP  RH WIND       PRES   REMARKS
ALGONA *       CLEAR     66  64  94 SE9       30.14R FOG
ESTHERVILLE    FOG       61  61 100 S7        30.12R VSB 1/4
6HR MIN TEMP:  54; 6HR MAX TEMP:  61;

FORT DODGE *   CLEAR     63  61  94 E3        30.14R
MASON CITY     FOG       59  59 100 CALM      30.16R VSB 1/4
6HR MIN TEMP:  56; 6HR MAX TEMP:  60;

FOREST CITY *    N/A    N/A N/A N/A MISG        N/A
WEBSTER CITY * MOCLDY    63  63 100 SE5       30.12R FOG
IOWA FALLS *   FOG       59  58  97 CALM      30.16R VSB 3/4
$$

IAZ007>011-017>019-026>030-037>042-050>054-066-281300-
   NORTHEAST IOWA

CITY           SKY/WX    TMP DP  RH WIND       PRES   REMARKS
CEDAR RAPIDS   PTCLDY    65  65 100 SE3       30.13R FOG
6HR MIN TEMP:  64; 6HR MAX TEMP:  68;

CHARLES CITY * FOG       61  61 100 CALM      30.15R VSB<1/4
CLINTON *      MOCLDY    67  67 100 E6        30.15R FOG
DECORAH *      FOG       59  59 100 CALM      30.15R VSB<1/4
DUBUQUE        CLEAR     67  66  97 E6        30.15S
6HR MIN TEMP:  62; 6HR MAX TEMP:  68;

MONTICELLO *   FOG       61  61 100 CALM      30.14R VSB<1/4
OELWEIN *      PTCLDY    61  61 100 E5        30.15R FOG
WATERLOO       PTCLDY    59  58  96 CALM      30.13R FOG
6HR MIN TEMP:  58; 6HR MAX TEMP:  63;

$$

IAZ064-065-067-068-078-281300-
   EAST CENTRAL IOWA

CITY           SKY/WX    TMP DP  RH WIND       PRES   REMARKS
DAVENPORT      PTCLDY    66  65  96 NE3       30.15R
6HR MIN TEMP:  64; 6HR MAX TEMP:  68;

IOWA CITY      CLOUDY    70  68  93 CALM      30.15R
6HR MIN TEMP:  66; 6HR MAX TEMP:  70;

MT. PLEASANT * PTCLDY    70  70 100 CALM      30.13R FOG
MUSCATINE *    FOG       70  68  94 CALM      30.14R VSB<1/4
QUAD CITIES    CLOUDY    70  67  90 E5        30.14R
6HR MIN TEMP:  68; 6HR MAX TEMP:  72;

$$

IAZ062-063-075>077-085>089-095>099-281300-
   SOUTHEAST IOWA

CITY           SKY/WX    TMP DP  RH WIND       PRES   REMARKS
BURLINGTON     FOG       71  71 100 CALM      30.13R VSB 3/4
6HR MIN TEMP:  69; 6HR MAX TEMP:  73;

FAIRFIELD *    PTCLDY    68  68 100 E5        30.12R FOG
FORT MADISON * PTCLDY    70  70 100 CALM      30.14R FOG
KEOKUK *       FOG       72  70  94 CALM      30.12R VSB 1
OSKALOOSA *      N/A     66  65  97 CALM      30.13R FOG
CENTERVILLE *    N/A     68  68 100 CALM      30.15R
OTTUMWA        CLEAR     67  65  93 CALM      30.12R FOG
6HR MIN TEMP:  66; 6HR MAX TEMP:  70;

WASHINGTON *   PTCLDY    68  68 100 NE6       30.14R FOG
$$

ABBREVIATIONS USED IN REMARKS
   TC - TEMPERATURES IN CELSIUS
  WCI - WIND CHILL INDEX
   HX - HEAT INDEX
  VSB - VISIBILITY
$$





USA.gov is the U.S. government's official web portal to all federal, state and local government web resources and services.